QPF
0.08 0.08 0.08 0.08 0.08 0.08 0.08 0.06 0.05 0.05 0.05 0.03 0.01 0.01 0.01 0.01 0.01 0.03 0.04 0.03 0.04 0.05 0.07 0.08 0.09 0.09 0.07 0.05 0.06 0.07 0.07 0.07 0.08 0.07 0.06 0.05 0.05 0.05 0.05 0.05 0.04 0.04 0.04
0.11 0.10 0.11 0.10 0.10 0.11 0.10 0.07 0.05 0.06 0.06 0.04 0.02 0.01 0.01 0.01 0.03 0.03 0.05 0.05 0.03 0.04 0.06 0.08 0.08 0.07 0.08 0.09 0.07 0.05 0.05 0.05 0.06 0.06 0.05 0.05 0.04 0.05 0.05 0.05 0.05 0.05 0.05
0.18 0.14 0.10 0.08 0.09 0.11 0.12 0.10 0.08 0.09 0.07 0.05 0.04 0.04 0.03 0.04 0.04 0.05 0.07 0.10 0.08 0.04 0.05 0.07 0.08 0.09 0.10 0.09 0.08 0.06 0.07 0.06 0.05 0.05 0.04 0.04 0.04 0.04 0.04 0.04 0.03 0.04 0.04
0.13 0.14 0.12 0.11 0.10 0.10 0.11 0.11 0.10 0.09 0.07 0.07 0.08 0.07 0.07 0.07 0.07 0.07 0.08 0.10 0.12 0.09 0.08 0.06 0.05 0.08 0.09 0.10 0.10 0.09 0.09 0.07 0.05 0.05 0.04 0.03 0.03 0.02 0.02 0.02 0.02 0.02 0.02
0.14 0.13 0.11 0.11 0.11 0.12 0.11 0.11 0.10 0.10 0.10 0.09 0.10 0.10 0.09 0.08 0.09 0.09 0.08 0.09 0.11 0.12 0.12 0.08 0.06 0.06 0.08 0.09 0.09 0.11 0.09 0.06 0.06 0.05 0.04 0.04 0.03 0.02 0.02 0.02 0.02 0.02 0.02
0.16 0.16 0.15 0.13 0.14 0.16 0.15 0.15 0.15 0.15 0.15 0.13 0.12 0.11 0.11 0.11 0.09 0.09 0.09 0.09 0.10 0.09 0.09 0.08 0.09 0.08 0.09 0.08 0.07 0.07 0.07 0.07 0.06 0.06 0.06 0.05 0.04 0.03 0.02 0.02 0.02 0.02 0.02
0.14 0.14 0.17 0.15 0.13 0.16 0.20 0.21 0.21 0.21 0.19 0.18 0.16 0.14 0.12 0.12 0.11 0.10 0.08 0.08 0.08 0.08 0.08 0.08 0.09 0.08 0.08 0.08 0.08 0.07 0.07 0.07 0.05 0.04 0.04 0.03 0.02 0.02 0.02 0.01 0.01 0.01 0.01
0.12 0.12 0.14 0.18 0.17 0.15 0.18 0.21 0.23 0.23 0.21 0.20 0.19 0.18 0.17 0.16 0.12 0.10 0.09 0.09 0.08 0.07 0.07 0.07 0.07 0.07 0.07 0.07 0.07 0.07 0.06 0.06 0.05 0.03 0.03 0.02 0.01 0.01 0.01 0.01 0.01 0.02 0.02
0.10 0.08 0.08 0.11 0.17 0.18 0.17 0.19 0.21 0.23 0.23 0.22 0.22 0.24 0.22 0.18 0.14 0.13 0.13 0.12 0.11 0.09 0.07 0.07 0.06 0.05 0.05 0.05 0.05 0.05 0.04 0.05 0.06 0.05 0.04 0.02 0.02 0.01 0.01 0.01 0.01 0.01 0.02
0.10 0.10 0.10 0.10 0.15 0.20 0.21 0.22 0.23 0.21 0.22 0.23 0.26 0.24 0.24 0.20 0.17 0.18 0.20 0.19 0.16 0.13 0.11 0.10 0.08 0.08 0.06 0.06 0.06 0.06 0.05 0.05 0.05 0.05 0.04 0.04 0.03 0.02 0.02 0.02 0.01 0.01 0.01
0.07 0.09 0.12 0.16 0.19 0.22 0.24 0.26 0.31 0.31 0.28 0.28 0.31 0.31 0.28 0.24 0.20 0.19 0.23 0.24 0.22 0.18 0.15 0.14 0.13 0.13 0.11 0.10 0.09 0.08 0.07 0.05 0.05 0.04 0.03 0.02 0.02 0.02 0.01 0.01 0.01 0.00 0.00
0.05 0.06 0.08 0.13 0.18 0.20 0.20 0.24 0.30 0.33 0.35 0.34 0.37 0.36 0.32 0.28 0.25 0.22 0.21 0.24 0.23 0.20 0.16 0.15 0.15 0.15 0.14 0.13 0.12 0.10 0.07 0.05 0.04 0.03 0.02 0.01 0.01 0.01 0.00 0.00 0.00 0.00 0.00
0.05 0.05 0.07 0.09 0.12 0.15 0.18 0.20 0.24 0.29 0.30 0.31 0.34 0.35 0.33 0.30 0.29 0.29 0.31 0.31 0.27 0.23 0.20 0.18 0.16 0.15 0.15 0.14 0.10 0.07 0.05 0.04 0.03 0.02 0.02 0.01 0.01 0.00 0.00 0.00 0.00 0.00 0.00
0.05 0.05 0.06 0.08 0.08 0.11 0.12 0.12 0.14 0.18 0.22 0.23 0.27 0.32 0.36 0.35 0.32 0.31 0.32 0.33 0.32 0.29 0.24 0.20 0.16 0.13 0.11 0.08 0.07 0.05 0.04 0.03 0.03 0.02 0.01 0.01 0.00 0.00 0.00 0.00 0.00 0.00 0.00
0.06 0.05 0.05 0.07 0.07 0.07 0.07 0.07 0.09 0.13 0.18 0.21 0.21 0.25 0.31 0.32 0.30 0.27 0.26 0.25 0.24 0.24 0.22 0.18 0.14 0.11 0.09 0.06 0.06 0.04 0.03 0.03 0.02 0.01 0.01 0.00 0.00 0.00 0.00 0.00 0.00 0.00 0.00
0.06 0.06 0.05 0.05 0.05 0.06 0.07 0.06 0.06 0.07 0.10 0.14 0.16 0.19 0.24 0.28 0.30 0.26 0.24 0.22 0.19 0.17 0.17 0.16 0.13 0.10 0.07 0.05 0.04 0.03 0.03 0.02 0.01 0.00 0.00 0.00 0.00 0.00 0.00 0.00 0.00 0.00 0.00
0.06 0.06 0.05 0.04 0.05 0.05 0.05 0.06 0.07 0.07 0.07 0.09 0.11 0.13 0.17 0.20 0.24 0.23 0.19 0.16 0.14 0.13 0.12 0.11 0.08 0.07 0.06 0.05 0.04 0.02 0.01 0.01 0.00 0.00 0.00 0.00 0.00 0.00 0.00 0.00 0.00 0.00 0.00
0.05 0.05 0.04 0.03 0.04 0.03 0.03 0.03 0.05 0.05 0.06 0.06 0.06 0.08 0.09 0.11 0.12 0.13 0.13 0.12 0.11 0.10 0.08 0.08 0.07 0.05 0.04 0.03 0.02 0.01 0.01 0.00 0.00 0.00 0.00 0.00 0.00 0.00 0.00 0.00 0.00 0.00 0.00
0.04 0.04 0.03 0.03 0.03 0.02 0.02 0.02 0.02 0.02 0.03 0.04 0.04 0.04 0.05 0.05 0.05 0.05 0.06 0.06 0.05 0.05 0.04 0.04 0.03 0.03 0.02 0.02 0.01 0.01 0.00 0.00 0.00 0.00 0.00 0.00 0.00 0.00 0.00 0.00 0.00 0.00 0.00
0.03 0.02 0.03 0.02 0.02 0.02 0.02 0.02 0.02 0.01 0.01 0.01 0.01 0.01 0.02 0.02 0.02 0.02 0.02 0.02 0.02 0.02 0.02 0.02 0.02 0.01 0.01 0.01 0.01 0.01 0.01 0.01 0.00 0.00 0.00 0.00 0.00 0.00 0.00 0.00 0.00 0.00 0.00
0.04 0.02 0.02 0.02 0.01 0.01 0.01 0.01 0.00 0.00 0.01 0.00 0.00 0.00 0.00 0.00 0.00 0.01 0.01 0.01 0.01 0.01 0.01 0.01 0.01 0.01 0.01 0.01 0.01 0.00 0.00 0.00 0.01 0.00 0.00 0.01 0.00 0.01 0.01 0.00 0.00 0.00 0.00
0.04 0.04 0.02 0.01 0.01 0.00 0.00 0.00 0.00 0.00 0.00 0.00 0.00 0.00 0.00 0.00 0.00 0.00 0.00 0.00 0.00 0.01 0.01 0.01 0.01 0.01 0.01 0.00 0.00 0.00 0.00 0.00 0.01 0.01 0.01 0.01 0.00 0.01 0.02 0.01 0.00 0.00 0.00
0.03 0.03 0.02 0.01 0.01 0.00 0.00 0.00 0.00 0.00 0.00 0.00 0.00 0.00 0.00 0.00 0.00 0.00 0.00 0.00 0.00 0.00 0.00 0.00 0.00 0.01 0.00 0.00 0.00 0.01 0.01 0.01 0.01 0.00 0.01 0.02 0.01 0.01 0.01 0.00 0.00 0.00 0.00
0.02 0.02 0.01 0.01 0.01 0.00 0.00 0.00 0.00 0.00 0.00 0.00 0.00 0.00 0.00 0.00 0.00 0.00 0.00 0.00 0.00 0.00 0.00 0.00 0.01 0.01 0.00 0.00 0.00 0.00 0.01 0.01 0.02 0.01 0.01 0.02 0.01 0.01 0.01 0.01 0.01 0.00 0.00
0.02 0.02 0.02 0.01 0.01 0.00 0.00 0.00 0.00 0.00 0.00 0.00 0.00 0.00 0.00 0.00 0.00 0.00 0.00 0.00 0.00 0.00 0.00 0.00 0.00 0.00 0.00 0.00 0.00 0.01 0.01 0.02 0.02 0.03 0.01 0.01 0.01 0.01 0.01 0.01 0.01 0.00 0.00
0.02 0.02 0.02 0.01 0.01 0.00 0.00 0.00 0.00 0.01 0.01 0.00 0.00 0.00 0.00 0.00 0.00 0.00 0.01 0.01 0.01 0.00 0.00 0.00 0.00 0.00 0.00 0.00 0.00 0.01 0.02 0.02 0.03 0.03 0.02 0.01 0.02 0.01 0.02 0.01 0.01 0.00 0.01
MSLP
1016.52 1016.72 1016.90 1017.10 1017.33 1017.61 1017.93 1018.26 1018.59 1018.87 1019.08 1019.22 1019.31 1019.36 1019.44 1019.58 1019.81 1020.16 1020.60 1021.10 1021.61 1022.07 1022.45 1022.70 1022.83 1022.85 1022.80 1022.70 1022.61 1022.54 1022.51 1022.52 1022.55 1022.60 1022.65 1022.70 1022.73 1022.76 1022.79 1022.82 1022.85 1022.90 1022.94
1016.38 1016.52 1016.63 1016.77 1016.95 1017.20 1017.52 1017.89 1018.29 1018.68 1019.02 1019.31 1019.53 1019.72 1019.88 1020.07 1020.32 1020.64 1021.03 1021.47 1021.92 1022.36 1022.73 1023.01 1023.20 1023.28 1023.29 1023.26 1023.21 1023.16 1023.14 1023.14 1023.16 1023.19 1023.23 1023.27 1023.30 1023.34 1023.37 1023.41 1023.44 1023.48 1023.50
1016.26 1016.34 1016.41 1016.49 1016.64 1016.88 1017.22 1017.65 1018.13 1018.64 1019.12 1019.56 1019.93 1020.23 1020.48 1020.72 1020.96 1021.23 1021.55 1021.92 1022.30 1022.69 1023.05 1023.35 1023.58 1023.74 1023.83 1023.86 1023.87 1023.86 1023.85 1023.85 1023.85 1023.87 1023.89 1023.91 1023.94 1023.97 1024.00 1024.03 1024.07 1024.09 1024.11
1016.12 1016.16 1016.20 1016.26 1016.41 1016.66 1017.03 1017.52 1018.09 1018.71 1019.33 1019.90 1020.40 1020.81 1021.14 1021.41 1021.64 1021.87 1022.12 1022.40 1022.70 1023.03 1023.36 1023.67 1023.94 1024.15 1024.31 1024.42 1024.49 1024.52 1024.54 1024.54 1024.54 1024.54 1024.54 1024.54 1024.55 1024.57 1024.59 1024.62 1024.64 1024.66 1024.67
1015.90 1015.93 1015.96 1016.04 1016.20 1016.48 1016.89 1017.44 1018.09 1018.81 1019.54 1020.23 1020.84 1021.35 1021.75 1022.04 1022.27 1022.45 1022.64 1022.83 1023.07 1023.33 1023.62 1023.92 1024.20 1024.46 1024.68 1024.86 1024.98 1025.07 1025.11 1025.13 1025.13 1025.11 1025.09 1025.08 1025.07 1025.07 1025.08 1025.10 1025.12 1025.14 1025.14
1015.58 1015.62 1015.67 1015.77 1015.97 1016.29 1016.75 1017.35 1018.06 1018.85 1019.66 1020.43 1021.13 1021.71 1022.17 1022.50 1022.73 1022.90 1023.03 1023.17 1023.34 1023.55 1023.80 1024.08 1024.37 1024.66 1024.92 1025.15 1025.32 1025.45 1025.54 1025.58 1025.58 1025.56 1025.53 1025.50 1025.47 1025.45 1025.45 1025.45 1025.47 1025.48 1025.50
1015.15 1015.20 1015.28 1015.43 1015.67 1016.03 1016.52 1017.15 1017.89 1018.72 1019.57 1020.40 1021.16 1021.81 1022.32 1022.70 1022.97 1023.14 1023.27 1023.38 1023.51 1023.68 1023.90 1024.16 1024.44 1024.74 1025.03 1025.30 1025.52 1025.70 1025.82 1025.89 1025.91 1025.90 1025.87 1025.82 1025.78 1025.74 1025.72 1025.71 1025.72 1025.73 1025.75
1014.64 1014.72 1014.83 1015.00 1015.27 1015.66 1016.16 1016.80 1017.55 1018.37 1019.24 1020.10 1020.89 1021.59 1022.17 1022.62 1022.94 1023.17 1023.32 1023.45 1023.59 1023.74 1023.94 1024.19 1024.47 1024.77 1025.08 1025.37 1025.63 1025.85 1026.01 1026.12 1026.17 1026.18 1026.15 1026.10 1026.04 1025.99 1025.94 1025.92 1025.91 1025.92 1025.94
1014.13 1014.21 1014.33 1014.52 1014.80 1015.18 1015.67 1016.28 1017.00 1017.80 1018.65 1019.51 1020.33 1021.09 1021.74 1022.27 1022.69 1023.00 1023.24 1023.42 1023.60 1023.78 1023.98 1024.23 1024.50 1024.81 1025.12 1025.43 1025.72 1025.97 1026.18 1026.32 1026.41 1026.45 1026.44 1026.39 1026.33 1026.26 1026.19 1026.15 1026.12 1026.12 1026.12
1013.70 1013.75 1013.85 1014.02 1014.28 1014.62 1015.07 1015.63 1016.29 1017.04 1017.86 1018.71 1019.56 1020.36 1021.10 1021.73 1022.27 1022.70 1023.05 1023.33 1023.58 1023.81 1024.05 1024.30 1024.58 1024.89 1025.21 1025.54 1025.85 1026.13 1026.37 1026.56 1026.69 1026.76 1026.77 1026.74 1026.67 1026.59 1026.51 1026.44 1026.39 1026.37 1026.36
1013.42 1013.42 1013.47 1013.58 1013.78 1014.06 1014.44 1014.92 1015.51 1016.21 1016.98 1017.82 1018.68 1019.54 1020.36 1021.11 1021.77 1022.34 1022.82 1023.22 1023.56 1023.86 1024.15 1024.43 1024.72 1025.03 1025.36 1025.69 1026.02 1026.33 1026.60 1026.82 1026.99 1027.09 1027.13 1027.12 1027.06 1026.98 1026.89 1026.80 1026.74 1026.69 1026.66
1013.34 1013.25 1013.22 1013.26 1013.37 1013.57 1013.86 1014.26 1014.78 1015.41 1016.14 1016.96 1017.84 1018.74 1019.64 1020.49 1021.28 1021.98 1022.59 1023.11 1023.54 1023.92 1024.26 1024.57 1024.88 1025.20 1025.53 1025.86 1026.20 1026.52 1026.82 1027.07 1027.27 1027.41 1027.48 1027.49 1027.46 1027.38 1027.29 1027.20 1027.12 1027.05 1027.00
1013.46 1013.29 1013.16 1013.11 1013.12 1013.23 1013.43 1013.75 1014.19 1014.76 1015.46 1016.25 1017.14 1018.07 1019.02 1019.96 1020.85 1021.65 1022.37 1022.99 1023.51 1023.96 1024.34 1024.69 1025.01 1025.33 1025.66 1025.99 1026.33 1026.66 1026.97 1027.24 1027.46 1027.63 1027.73 1027.77 1027.76 1027.71 1027.64 1027.55 1027.47 1027.40 1027.33
1013.78 1013.52 1013.31 1013.16 1013.08 1013.11 1013.23 1013.48 1013.86 1014.38 1015.03 1015.80 1016.67 1017.61 1018.59 1019.57 1020.51 1021.38 1022.16 1022.85 1023.43 1023.93 1024.35 1024.72 1025.05 1025.37 1025.69 1026.02 1026.35 1026.67 1026.98 1027.26 1027.49 1027.68 1027.81 1027.88 1027.90 1027.89 1027.85 1027.79 1027.72 1027.66 1027.60
1014.26 1013.93 1013.65 1013.43 1013.29 1013.25 1013.32 1013.51 1013.84 1014.31 1014.91 1015.64 1016.48 1017.40 1018.37 1019.34 1020.28 1021.17 1021.97 1022.68 1023.28 1023.80 1024.24 1024.62 1024.96 1025.28 1025.60 1025.91 1026.22 1026.53 1026.82 1027.09 1027.32 1027.52 1027.66 1027.76 1027.83 1027.85 1027.86 1027.84 1027.81 1027.78 1027.73
1014.85 1014.50 1014.18 1013.92 1013.74 1013.66 1013.70 1013.86 1014.15 1014.57 1015.13 1015.81 1016.59 1017.45 1018.36 1019.28 1020.17 1021.02 1021.79 1022.48 1023.07 1023.58 1024.02 1024.40 1024.75 1025.07 1025.37 1025.67 1025.96 1026.24 1026.51 1026.76 1026.97 1027.16 1027.31 1027.43 1027.52 1027.60 1027.65 1027.68 1027.71 1027.71 1027.70
1015.54 1015.19 1014.88 1014.62 1014.44 1014.35 1014.37 1014.51 1014.77 1015.16 1015.66 1016.27 1016.97 1017.74 1018.55 1019.37 1020.18 1020.94 1021.64 1022.27 1022.83 1023.32 1023.74 1024.12 1024.46 1024.77 1025.07 1025.36 1025.62 1025.88 1026.11 1026.32 1026.51 1026.67 1026.81 1026.94 1027.05 1027.15 1027.25 1027.34 1027.41 1027.47 1027.50
1016.30 1015.99 1015.71 1015.48 1015.32 1015.25 1015.28 1015.41 1015.64 1015.99 1016.43 1016.96 1017.56 1018.22 1018.91 1019.61 1020.29 1020.95 1021.56 1022.11 1022.61 1023.06 1023.47 1023.84 1024.18 1024.49 1024.79 1025.06 1025.32 1025.54 1025.73 1025.90 1026.04 1026.16 1026.27 1026.38 1026.49 1026.61 1026.73 1026.86 1026.98 1027.08 1027.15
1017.11 1016.86 1016.64 1016.46 1016.35 1016.31 1016.35 1016.47 1016.68 1016.97 1017.34 1017.78 1018.28 1018.82 1019.39 1019.96 1020.52 1021.06 1021.58 1022.05 1022.49 1022.90 1023.29 1023.65 1024.00 1024.32 1024.61 1024.88 1025.12 1025.31 1025.46 1025.58 1025.66 1025.73 1025.79 1025.86 1025.95 1026.06 1026.19 1026.33 1026.47 1026.60 1026.71
1017.97 1017.79 1017.64 1017.52 1017.45 1017.44 1017.48 1017.60 1017.77 1018.01 1018.32 1018.67 1019.07 1019.50 1019.95 1020.41 1020.87 1021.31 1021.73 1022.13 1022.52 1022.90 1023.27 1023.62 1023.97 1024.30 1024.60 1024.86 1025.08 1025.24 1025.35 1025.42 1025.44 1025.44 1025.45 1025.46 1025.50 1025.57 1025.68 1025.81 1025.95 1026.09 1026.21
1018.86 1018.75 1018.65 1018.59 1018.55 1018.56 1018.61 1018.70 1018.84 1019.03 1019.27 1019.55 1019.87 1020.21 1020.58 1020.95 1021.32 1021.68 1022.04 1022.39 1022.73 1023.08 1023.43 1023.78 1024.12 1024.45 1024.75 1025.00 1025.20 1025.34 1025.41 1025.42 1025.39 1025.33 1025.26 1025.20 1025.18 1025.20 1025.25 1025.35 1025.46 1025.58 1025.68
1019.75 1019.69 1019.65 1019.62 1019.61 1019.62 1019.66 1019.72 1019.83 1019.97 1020.16 1020.38 1020.64 1020.93 1021.24 1021.56 1021.87 1022.19 1022.50 1022.81 1023.12 1023.43 1023.75 1024.08 1024.41 1024.73 1025.01 1025.26 1025.44 1025.55 1025.58 1025.55 1025.46 1025.33 1025.20 1025.08 1024.98 1024.93 1024.92 1024.95 1025.01 1025.09 1025.16
1020.60 1020.59 1020.57 1020.56 1020.56 1020.56 1020.58 1020.62 1020.69 1020.80 1020.95 1021.14 1021.38 1021.64 1021.92 1022.22 1022.51 1022.80 1023.08 1023.36 1023.63 1023.91 1024.20 1024.49 1024.78 1025.07 1025.33 1025.54 1025.70 1025.78 1025.78 1025.71 1025.58 1025.40 1025.21 1025.02 1024.86 1024.73 1024.65 1024.62 1024.61 1024.63 1024.65
1021.39 1021.40 1021.40 1021.40 1021.40 1021.39 1021.39 1021.40 1021.45 1021.53 1021.66 1021.85 1022.07 1022.34 1022.63 1022.92 1023.21 1023.49 1023.75 1023.99 1024.22 1024.45 1024.68 1024.91 1025.15 1025.38 1025.60 1025.77 1025.89 1025.94 1025.92 1025.82 1025.65 1025.44 1025.21 1024.97 1024.76 1024.57 1024.42 1024.31 1024.24 1024.18 1024.14
1022.07 1022.10 1022.13 1022.14 1022.13 1022.11 1022.10 1022.09 1022.12 1022.20 1022.33 1022.51 1022.75 1023.03 1023.33 1023.64 1023.93 1024.20 1024.43 1024.63 1024.81 1024.96 1025.12 1025.28 1025.44 1025.60 1025.75 1025.87 1025.95 1025.97 1025.92 1025.81 1025.63 1025.40 1025.15 1024.88 1024.62 1024.39 1024.19 1024.01 1023.87 1023.75 1023.64
1022.64 1022.71 1022.76 1022.78 1022.78 1022.77 1022.75 1022.74 1022.76 1022.84 1022.97 1023.17 1023.43 1023.72 1024.04 1024.35 1024.63 1024.88 1025.08 1025.22 1025.33 1025.41 1025.48 1025.54 1025.62 1025.70 1025.77 1025.84 1025.87 1025.86 1025.80 1025.67 1025.49 1025.26 1025.00 1024.72 1024.44 1024.18 1023.93 1023.72 1023.52 1023.33 1023.16
Thickness
5733 5732 5731 5730 5731 5731 5730 5729 5728 5727 5726 5725 5725 5726 5726 5727 5727 5726 5724 5720 5718 5716 5715 5715 5714 5713 5712 5710 5709 5708 5706 5705 5704 5702 5701 5700 5699 5698 5696 5695 5694 5693 5691
5728 5727 5726 5725 5726 5727 5726 5725 5725 5723 5722 5722 5722 5722 5722 5723 5722 5721 5720 5717 5714 5713 5712 5712 5711 5710 5709 5707 5706 5704 5703 5702 5700 5699 5697 5696 5695 5694 5692 5691 5689 5688 5686
5722 5721 5722 5721 5721 5722 5721 5719 5720 5719 5718 5717 5717 5717 5717 5717 5717 5716 5715 5714 5712 5709 5708 5708 5707 5706 5705 5704 5702 5700 5699 5697 5696 5694 5693 5691 5690 5688 5687 5685 5683 5682 5680
5715 5715 5716 5716 5716 5716 5716 5715 5715 5715 5714 5713 5712 5711 5711 5710 5710 5710 5710 5709 5708 5708 5704 5703 5702 5701 5700 5698 5697 5695 5693 5692 5690 5688 5686 5685 5683 5681 5680 5678 5676 5674 5673
5707 5708 5711 5711 5709 5710 5711 5711 5711 5710 5707 5706 5705 5703 5702 5702 5702 5702 5703 5703 5702 5701 5699 5697 5696 5695 5694 5693 5691 5689 5687 5685 5683 5681 5679 5677 5675 5673 5671 5670 5668 5666 5664
5700 5702 5703 5703 5704 5705 5705 5706 5705 5704 5702 5700 5698 5695 5693 5693 5694 5694 5694 5695 5694 5694 5693 5692 5690 5688 5687 5686 5684 5683 5681 5678 5676 5674 5671 5669 5667 5665 5663 5661 5659 5657 5655
5696 5697 5696 5698 5699 5700 5700 5700 5699 5696 5695 5694 5689 5685 5683 5684 5684 5685 5686 5686 5687 5686 5685 5684 5684 5682 5679 5677 5676 5674 5672 5670 5667 5665 5662 5660 5657 5655 5653 5651 5648 5646 5644
5689 5691 5691 5693 5694 5694 5694 5693 5693 5691 5690 5689 5686 5680 5675 5673 5674 5676 5676 5677 5678 5677 5677 5676 5675 5674 5672 5670 5667 5666 5663 5661 5658 5655 5652 5650 5647 5645 5642 5640 5638 5635 5633
5681 5683 5684 5686 5687 5688 5688 5688 5687 5686 5684 5683 5684 5681 5675 5672 5669 5666 5666 5667 5667 5667 5667 5666 5665 5664 5663 5661 5658 5656 5653 5651 5648 5644 5641 5639 5636 5634 5631 5629 5627 5625 5622
5673 5675 5676 5678 5680 5681 5682 5682 5683 5683 5681 5678 5677 5678 5678 5677 5669 5660 5656 5656 5656 5656 5657 5656 5655 5653 5652 5650 5647 5645 5642 5639 5636 5633 5630 5628 5625 5623 5620 5618 5615 5613 5611
5665 5667 5668 5670 5672 5674 5674 5675 5676 5677 5678 5676 5674 5672 5670 5668 5668 5663 5653 5648 5645 5644 5645 5645 5643 5641 5639 5638 5635 5632 5629 5627 5624 5621 5619 5616 5614 5611 5609 5606 5604 5601 5599
5657 5658 5659 5660 5663 5665 5665 5667 5668 5670 5671 5671 5670 5669 5667 5665 5663 5661 5654 5645 5639 5634 5632 5632 5631 5629 5628 5627 5624 5620 5617 5614 5612 5609 5606 5604 5602 5600 5597 5595 5592 5590 5587
5647 5647 5649 5650 5652 5653 5655 5657 5659 5661 5662 5663 5663 5662 5662 5661 5660 5657 5650 5640 5632 5625 5621 5620 5619 5618 5617 5616 5612 5609 5605 5603 5600 5598 5595 5593 5590 5588 5586 5583 5580 5578 5575
5636 5637 5639 5640 5641 5642 5645 5647 5649 5651 5652 5654 5653 5653 5654 5653 5651 5650 5645 5637 5627 5618 5614 5611 5609 5608 5607 5606 5602 5599 5596 5593 5590 5588 5586 5583 5580 5577 5574 5572 5569 5566 5563
5626 5627 5628 5630 5631 5633 5635 5637 5638 5639 5641 5643 5643 5644 5643 5643 5642 5641 5638 5635 5629 5618 5608 5604 5602 5600 5598 5596 5593 5591 5588 5584 5581 5579 5576 5573 5570 5567 5564 5561 5558 5555 5551
5616 5617 5618 5620 5621 5623 5626 5627 5628 5629 5630 5631 5632 5633 5633 5633 5632 5631 5628 5625 5624 5618 5608 5601 5598 5595 5591 5588 5584 5583 5580 5576 5573 5570 5567 5564 5561 5558 5554 5551 5547 5544 5541
5606 5608 5608 5609 5611 5612 5615 5616 5618 5620 5620 5620 5621 5622 5621 5622 5621 5620 5619 5617 5614 5611 5604 5595 5591 5587 5583 5581 5577 5575 5574 5571 5567 5563 5560 5556 5552 5549 5545 5542 5539 5535 5532
5596 5597 5598 5599 5601 5602 5604 5606 5608 5609 5610 5610 5611 5611 5611 5611 5610 5609 5608 5607 5604 5601 5597 5589 5583 5579 5575 5573 5570 5567 5567 5566 5562 5556 5552 5548 5544 5541 5537 5534 5530 5527 5524
5586 5587 5588 5588 5590 5591 5593 5594 5596 5597 5598 5600 5600 5601 5600 5600 5600 5598 5598 5596 5594 5592 5588 5583 5577 5572 5569 5566 5562 5561 5559 5556 5555 5549 5545 5541 5537 5533 5530 5527 5523 5520 5518
5575 5576 5577 5578 5579 5581 5582 5584 5585 5586 5587 5588 5588 5589 5589 5588 5588 5587 5586 5585 5584 5581 5577 5575 5570 5566 5561 5557 5556 5555 5552 5550 5548 5545 5539 5535 5531 5527 5524 5521 5518 5515 5512
5565 5566 5567 5567 5568 5569 5570 5573 5575 5576 5576 5576 5576 5575 5574 5573 5572 5574 5576 5574 5573 5572 5570 5566 5562 5559 5554 5551 5550 5548 5546 5544 5540 5537 5534 5532 5528 5525 5521 5516 5513 5510 5507
5554 5555 5556 5557 5557 5556 5555 5559 5563 5565 5565 5565 5565 5564 5563 5562 5560 5559 5558 5558 5558 5559 5558 5557 5553 5548 5543 5542 5539 5539 5538 5537 5533 5529 5528 5527 5525 5522 5520 5516 5510 5506 5503
5545 5545 5546 5546 5545 5542 5544 5547 5550 5554 5555 5554 5554 5555 5555 5552 5553 5551 5547 5545 5544 5542 5542 5544 5543 5539 5535 5532 5530 5530 5526 5526 5523 5523 5521 5520 5520 5518 5516 5512 5506 5502 5499
5536 5537 5537 5537 5536 5533 5533 5537 5540 5544 5544 5543 5543 5543 5543 5542 5541 5541 5542 5539 5537 5533 5532 5532 5530 5527 5525 5521 5520 5519 5517 5516 5515 5514 5513 5513 5514 5513 5512 5508 5503 5500 5497
5528 5528 5529 5529 5528 5525 5524 5528 5532 5535 5535 5534 5534 5532 5533 5531 5527 5528 5532 5531 5528 5524 5521 5519 5517 5515 5512 5511 5509 5512 5513 5513 5511 5511 5509 5509 5508 5508 5507 5506 5502 5499 5496
5521 5522 5521 5520 5520 5518 5516 5520 5523 5530 5528 5528 5526 5523 5519 5519 5518 5519 5523 5523 5521 5519 5518 5515 5511 5509 5508 5506 5503 5503 5506 5506 5506 5504 5503 5502 5503 5503 5502 5504 5502 5500 5497